Weather History for Calgary Springbank, AB

Change the Weather History Date:

Tuesday, May 7, 2013

  Actual Average Record
Temperature  
Mean Temperature 50 °F -  
Max Temperature 61 °F 57 °F 73 °F (1998)
Min Temperature 40 °F 35 °F 15 °F (2014)
Degree Days  
Heating Degree Days 14    
Moisture  
Dew Point 29 °F    
Average Humidity 40    
Maximum Humidity 65    
Minimum Humidity 19    
Precipitation  
Precipitation 0.00 in - - ()
Sea Level Pressure  
Sea Level Pressure 30.15 in    
Wind  
Wind Speed 11 mph ()    
Max Wind Speed 18 mph    
Max Gust Speed 30 mph    
Visibility 15.0 miles    
Events      
Averages and records for this station are not official NWS values.
T = Trace of Precipitation, MM = Missing Value Source: Averaged Metar Reports

Daily Weather History Graph

Daily Weather History Graph

Search for Another Location

Airport:

Trip Planner

Search our weather history database for the weather conditions in past years. The results will help you decide how hot, cold, wet, or windy it might be!

Date:

Astronomy

May. 07, 2013 Rise Set
Actual Time 5:59 AM MDT 9:09 PM MDT
Civil Twilight 5:20 AM MDT 9:49 PM MDT
Nautical Twilight 4:28 AM MDT 10:41 PM MDT
Astronomical Twilight 3:21 AM MDT 11:49 PM MDT
Moon 4:50 AM MDT (5/7) 7:02 PM MDT (5/7)
Length of Visible Light 16h 28m
Length of Day
15h 10m
Waning Crescent, 5% of the Moon is Illuminated
May 7
Waning Crescent
May 9
New
May 17
First Quarter
May 24
Full
May 31
Last Quarter

Hourly Weather History & Observations

Time (MDT) Temp. Windchill Dew Point Humidity Pressure Visibility Wind Dir Wind Speed Gust Speed Precip Events Conditions
5:00 AM 50.0 °F - 32.0 °F 50% 30.01 in 15.0 mi North 17.3 mph 29.9 mph N/A   Partly Cloudy
6:00 AM 46 °F - 30 °F 41% 30.05 in 28 mi NNW 13.8 mph - -   Scattered Clouds
6:00 AM 46.4 °F 40.4 °F 30.2 °F 53% 30.05 in 30.0 mi NNW 13.8 mph - N/A   Partly Cloudy
7:00 AM 41.0 °F 37.1 °F 30.2 °F 65% 30.09 in 30.0 mi NW 5.8 mph - N/A   Partly Cloudy
8:00 AM 50.0 °F - 33.8 °F 54% 30.10 in 30.0 mi North 16.1 mph - N/A   Partly Cloudy
9:00 AM 53.6 °F - 32.0 °F 44% 30.13 in 30.0 mi North 18.4 mph - N/A   Partly Cloudy
10:00 AM 55.4 °F - 32.0 °F 41% 30.15 in 30.0 mi North 17.3 mph 24.2 mph N/A   Partly Cloudy
11:00 AM 55.4 °F - 32.0 °F 41% 30.17 in 30.0 mi North 10.4 mph 20.7 mph N/A   Partly Cloudy
12:00 PM 57 °F - 29 °F 22% 30.20 in 28 mi NE 11.5 mph - -   Partly Cloudy
12:00 PM 57.2 °F - 28.4 °F 33% 30.20 in 30.0 mi NE 8.1 mph 20.7 mph N/A   Scattered Clouds
1:00 PM 60.8 °F - 30.2 °F 31% 30.18 in 30.0 mi NE 9.2 mph - N/A   Mostly Cloudy
2:00 PM 53.6 °F - 30.2 °F 41% 30.18 in 30.0 mi NE 17.3 mph 23.0 mph N/A   Mostly Cloudy
3:00 PM 59.0 °F - 30.2 °F 34% 30.17 in 30.0 mi ENE 13.8 mph 21.9 mph N/A   Mostly Cloudy
4:00 PM 57.2 °F - 28.4 °F 33% 30.15 in 30.0 mi ENE 15.0 mph - N/A   Mostly Cloudy
5:00 PM 57.2 °F - 24.8 °F 29% 30.17 in 30.0 mi East 12.7 mph - N/A   Scattered Clouds
6:00 PM 57 °F - 26 °F 19% 30.18 in 28 mi East 11.5 mph - -   Scattered Clouds
6:00 PM 57.2 °F - 26.6 °F 31% 30.18 in 30.0 mi East 11.5 mph - N/A   Scattered Clouds
7:00 PM 55.4 °F - 26.6 °F 33% 30.19 in 30.0 mi East 9.2 mph - N/A   Scattered Clouds
8:00 PM 51.8 °F - 28.4 °F 41% 30.18 in 30.0 mi ESE 6.9 mph - N/A   Scattered Clouds
9:00 PM 46.4 °F 43.5 °F 28.4 °F 50% 30.19 in 30.0 mi SSE 5.8 mph - N/A   Partly Cloudy
10:00 PM 42.8 °F 38.6 °F 28.4 °F 57% 30.16 in 15.0 mi SSE 6.9 mph - N/A   Partly Cloudy